Weather History for Monterey, CA

Change the Weather History Date:

Saturday, December 20, 2014

  Actual Average Record
Temperature  
Mean Temperature 60 °F 51 °F  
Max Temperature 63 °F 60 °F 75 °F (1999)
Min Temperature 56 °F 42 °F 31 °F (1998)
Degree Days  
Heating Degree Days 5    
Month to date heating degree days 144  
Since 1 July heating degree days 580  
Cooling Degree Days 0    
Month to date cooling degree days 0  
Year to date cooling degree days 142  
Growing Degree Days 8 (Base 50)    
Moisture  
Dew Point 54 °F    
Average Humidity 86    
Maximum Humidity 100    
Minimum Humidity 72    
Precipitation  
Precipitation 0.14 in - 1.56 in (2001)
Month to date precipitation 8.86  
Year to date precipitation 19.50  
Since 1 July precipitation 12.11  
Sea Level Pressure  
Sea Level Pressure 30.22 in    
Wind  
Wind Speed 1 mph (West)    
Max Wind Speed 9 mph    
Max Gust Speed 12 mph    
Visibility 9 miles    
Events Rain    
T = Trace of Precipitation, MM = Missing Value Source: NWS Daily Summary

Daily Weather History Graph

Daily Weather History Graph

Search for Another Location

Airport:

Trip Planner

Search our weather history database for the weather conditions in past years. The results will help you decide how hot, cold, wet, or windy it might be!

Date:

Astronomy

Dec. 20, 2014 Rise Set
Actual Time 7:15 AM PST 4:54 PM PST
Civil Twilight 6:46 AM PST 5:23 PM PST
Nautical Twilight 6:14 AM PST 5:56 PM PST
Astronomical Twilight 5:42 AM PST 6:27 PM PST
Moon 5:39 AM PST (12/20) 4:08 PM PST (12/20)
Length of Visible Light 10h 37m
Length of Day
9h 39m
Waning Crescent, 2% of the Moon is Illuminated
Dec 20
Waning Crescent
Dec 21
New
Dec 28
First Quarter
Jan 4
Full
Jan 13
Last Quarter

Hourly Weather History & Observations

Time (PST) Temp. Dew Point Humidity Pressure Visibility Wind Dir Wind Speed Gust Speed Precip Events Conditions
12:54 AM 57.0 °F 55.9 °F 96% 30.18 in 10.0 mi ESE 3.5 mph - N/A   Overcast
1:54 AM 57.0 °F 57.0 °F 100% 30.17 in 10.0 mi Calm Calm - N/A   Overcast
2:07 AM 57.2 °F 57.2 °F 100% 30.13 in 10.0 mi Calm Calm - N/A   Overcast
2:16 AM 57.2 °F 57.2 °F 100% 30.14 in 10.0 mi Calm Calm - N/A   Overcast
2:37 AM 57.2 °F 57.2 °F 100% 30.15 in 10.0 mi Calm Calm - N/A   Overcast
2:54 AM 57.0 °F 57.0 °F 100% 30.19 in 10.0 mi East 3.5 mph - N/A   Overcast
3:13 AM 55.4 °F 55.4 °F 100% 30.14 in 10.0 mi ESE 3.5 mph - N/A   Overcast
3:54 AM 55.9 °F 54.0 °F 93% 30.17 in 5.0 mi Calm Calm - 0.03 in   Overcast
4:46 AM 57.2 °F 55.4 °F 94% 30.13 in 10.0 mi ENE 3.5 mph - 0.01 in   Overcast
4:54 AM 57.9 °F 55.0 °F 90% 30.17 in 10.0 mi Calm Calm - 0.01 in   Overcast
5:27 AM 59.0 °F 55.4 °F 88% 30.14 in 5.0 mi SSW 4.6 mph - N/A   Overcast
5:54 AM 59.0 °F 55.9 °F 90% 30.18 in 6.0 mi West 3.5 mph - 0.00 in Rain Light Rain
5:57 AM 59.0 °F 55.4 °F 88% 30.15 in 10.0 mi Calm Calm - 0.00 in   Overcast
6:13 AM 57.2 °F 55.4 °F 94% 30.15 in 1.8 mi West 9.2 mph - 0.05 in   Overcast
6:23 AM 57.2 °F 55.4 °F 94% 30.16 in 2.5 mi West 6.9 mph - 0.08 in Rain Rain
6:51 AM 57.2 °F 55.4 °F 94% 30.16 in 10.0 mi WNW 5.8 mph - 0.09 in Rain Light Rain
6:54 AM 57.0 °F 55.9 °F 96% 30.20 in 10.0 mi West 6.9 mph - 0.10 in Rain Light Rain
7:54 AM 57.9 °F 55.0 °F 90% 30.22 in 9.0 mi Calm Calm - 0.00 in Rain Light Rain
8:09 AM 57.2 °F 55.4 °F 94% 30.18 in 9.0 mi Calm Calm - 0.00 in Rain Light Rain
8:35 AM 57.2 °F 55.4 °F 94% 30.20 in 10.0 mi Calm Calm - 0.00 in Rain Light Rain
8:54 AM 57.9 °F 55.9 °F 93% 30.25 in 10.0 mi Calm Calm - 0.00 in Rain Light Rain
9:17 AM 57.2 °F 55.4 °F 94% 30.22 in 10.0 mi Calm Calm - 0.00 in Rain Light Rain
9:54 AM 59.0 °F 55.0 °F 87% 30.27 in 10.0 mi Calm Calm - 0.00 in Rain Light Rain
10:08 AM 59.0 °F 53.6 °F 82% 30.23 in 10.0 mi Calm Calm - 0.00 in Rain Light Rain
10:39 AM 60.8 °F 53.6 °F 77% 30.23 in 10.0 mi Calm Calm - 0.00 in Rain Light Rain
10:54 AM 61.0 °F 54.0 °F 78% 30.27 in 10.0 mi Calm Calm - 0.00 in   Mostly Cloudy
11:33 AM 62.6 °F 53.6 °F 72% 30.22 in 10.0 mi Calm Calm - N/A   Mostly Cloudy
11:54 AM 61.0 °F 53.1 °F 75% 30.26 in 10.0 mi West 4.6 mph - N/A   Mostly Cloudy
12:54 PM 61.0 °F 52.0 °F 72% 30.23 in 10.0 mi WNW 4.6 mph - N/A   Mostly Cloudy
1:14 PM 60.8 °F 51.8 °F 72% 30.21 in 10.0 mi WNW 5.8 mph - N/A   Overcast
1:26 PM 60.8 °F 51.8 °F 72% 30.21 in 10.0 mi WNW 4.6 mph - N/A   Overcast
1:54 PM 60.1 °F 53.1 °F 78% 30.24 in 10.0 mi West 3.5 mph - N/A   Overcast
2:54 PM 61.0 °F 53.1 °F 75% 30.25 in 10.0 mi West 3.5 mph - N/A   Overcast
3:54 PM 60.1 °F 52.0 °F 75% 30.25 in 10.0 mi Calm Calm - N/A   Overcast
4:54 PM 60.1 °F 53.1 °F 78% 30.27 in 9.0 mi Calm Calm - N/A   Overcast
5:54 PM 59.0 °F 54.0 °F 83% 30.29 in 10.0 mi Calm Calm - N/A   Overcast
6:54 PM 57.9 °F 53.1 °F 84% 30.30 in 10.0 mi Calm Calm - N/A   Overcast
7:54 PM 57.9 °F 51.1 °F 78% 30.30 in 10.0 mi Calm Calm - N/A   Overcast
8:54 PM 57.9 °F 50.0 °F 75% 30.31 in 10.0 mi SE 4.6 mph - N/A   Overcast
9:54 PM 57.0 °F 51.1 °F 81% 30.32 in 10.0 mi Calm Calm - N/A   Mostly Cloudy
10:35 PM 57.2 °F 50.0 °F 77% 30.29 in 10.0 mi Calm Calm - N/A   Overcast
10:54 PM 57.0 °F 51.1 °F 81% 30.32 in 10.0 mi Calm Calm - N/A   Overcast
11:54 PM 55.9 °F 50.0 °F 80% 30.32 in 10.0 mi Calm Calm - N/A   Overcast